Wind_Speed
7 6 6 6 6 6 5 5 3 3 4 5 5 6 6 7 7 8 9 10 10 10 10 8 7 6 5 6 6 7 6 6 6 7 7 7 7 7 7 7 7 7 7
9 8 8 8 9 9 8 7 5 3 2 2 2 3 4 5 5 6 7 7 8 9 10 9 7 6 5 4 4 4 4 5 5 5 5 5 5 5 5 5 5 6 6
10 10 10 10 10 10 10 9 8 6 4 3 2 2 2 3 4 5 5 6 7 8 9 9 8 7 5 4 3 3 2 3 3 4 4 3 3 3 3 4 4 5 5
10 11 11 12 12 11 10 9 9 8 7 6 5 4 4 5 5 5 6 6 7 7 8 8 8 7 6 5 4 3 2 2 1 1 1 1 2 2 3 3 4 4 4
11 12 13 13 13 12 11 10 10 9 8 7 7 7 7 7 7 7 8 8 8 8 8 8 7 6 6 5 4 4 3 3 2 1 1 1 1 2 3 4 4 4 4
11 13 14 14 13 12 12 11 11 10 9 9 9 9 9 10 10 10 10 10 11 10 10 9 8 8 7 6 5 5 5 4 3 3 3 3 3 3 3 4 5 5 4
12 14 15 14 13 12 12 11 11 11 11 11 11 12 12 13 13 13 14 14 14 14 14 13 12 11 10 10 8 8 7 7 6 5 5 5 5 5 5 5 5 5 6
13 14 14 14 13 12 12 12 12 13 13 13 14 15 15 15 16 16 17 17 17 18 18 17 17 15 14 13 12 12 11 11 11 10 8 8 7 7 7 7 7 7 7
12 14 14 15 15 14 14 14 15 15 16 16 16 17 17 18 18 19 19 20 20 20 20 20 20 19 18 17 16 16 15 15 14 14 13 12 11 10 9 9 9 9 9
13 14 16 17 18 18 18 19 18 19 19 19 19 19 19 20 21 21 22 22 23 23 23 23 23 23 22 21 20 19 19 19 18 18 18 16 15 14 13 12 12 12 12
15 17 19 21 22 23 23 24 24 24 24 23 23 22 22 22 22 23 23 24 25 25 24 24 25 25 25 24 23 22 22 22 21 21 21 20 19 18 17 16 16 15 15
18 20 22 25 26 28 29 29 29 29 29 28 28 26 25 25 24 24 25 25 26 26 25 25 25 26 26 25 25 24 24 24 23 23 22 22 22 21 20 20 19 19 18
22 24 26 28 30 32 32 33 34 34 34 33 33 31 30 28 27 26 26 26 27 26 26 25 26 26 26 26 26 25 24 24 23 22 21 21 22 22 22 22 22 22 22
26 27 29 30 32 33 34 34 35 37 37 37 37 35 34 32 30 28 28 27 27 26 26 25 25 26 26 26 26 25 24 23 22 22 21 20 21 21 22 22 23 23 24
28 28 30 32 32 32 34 36 36 36 37 37 38 38 37 34 33 31 29 28 27 26 26 26 26 26 26 26 26 25 23 23 22 23 22 21 21 21 22 22 22 23 24
29 29 31 32 33 35 36 35 37 37 38 40 40 40 40 37 35 33 30 29 28 27 26 27 27 26 26 26 26 25 25 23 22 22 22 21 21 20 20 21 22 23 24
30 32 34 35 35 35 37 37 38 38 36 38 39 40 40 39 36 34 32 30 28 27 26 26 26 26 26 26 26 26 24 23 22 21 20 20 19 19 19 20 21 23 24
34 35 37 36 36 36 37 37 37 37 35 34 35 38 38 37 36 34 32 30 29 27 27 27 27 27 26 26 26 25 24 22 21 20 19 19 18 18 19 19 20 21 23
37 38 38 37 38 37 36 36 34 34 32 32 31 34 35 35 34 33 32 31 29 27 27 27 26 26 26 25 25 24 23 22 20 19 18 18 18 17 18 18 19 20 22
40 40 39 39 39 37 34 33 33 32 30 29 27 28 32 33 33 32 31 31 29 27 27 26 25 25 24 24 24 24 23 22 20 20 18 17 17 17 17 18 19 20 22
43 43 41 39 38 36 35 34 32 31 29 27 27 26 27 28 30 32 30 28 28 28 27 26 25 25 24 24 24 24 23 22 21 20 19 17 17 16 17 17 19 20 22
43 43 42 40 40 38 36 35 33 31 30 28 25 25 25 25 27 29 29 28 29 28 27 26 25 25 25 24 25 24 23 22 21 20 19 18 17 16 17 17 18 20 21
41 41 41 41 41 40 39 37 35 33 31 28 27 26 25 25 27 29 29 29 29 28 28 27 27 26 26 26 26 26 24 23 22 22 20 18 18 17 17 18 19 20 21
38 40 41 41 41 41 40 38 37 35 33 32 29 28 28 28 28 29 29 29 30 30 29 29 29 29 28 28 28 28 27 25 24 23 22 20 19 18 18 19 19 20 20
35 37 39 41 42 43 42 41 39 38 37 36 34 33 32 32 32 32 32 31 31 32 32 32 31 31 31 30 30 30 29 27 26 25 23 22 20 19 19 19 20 20 20
35 38 40 42 43 44 44 43 43 42 41 40 39 38 38 37 36 36 36 35 35 35 35 34 34 33 33 32 32 32 31 30 29 27 26 24 22 20 20 20 20 20 20
Wind_Direction
267 268 273 276 280 286 297 313 339 29 59 63 57 46 41 39 36 32 29 31 31 31 30 33 40 49 57 65 67 67 65 63 62 66 71 77 85 90 92 100 115 125 128
267 271 276 279 280 285 292 299 306 318 353 36 46 37 29 23 19 17 16 17 19 20 21 21 25 32 38 46 56 60 63 64 61 61 67 73 84 96 103 108 119 133 138
268 275 281 282 282 286 290 294 298 302 308 315 320 328 338 342 345 348 351 356 1 6 12 14 16 20 22 22 23 25 36 53 61 63 68 77 92 111 126 133 140 149 153
276 283 286 285 285 287 290 293 296 299 301 302 300 299 300 302 307 314 320 327 335 345 355 2 5 9 13 9 0 351 346 358 22 53 77 96 119 141 156 158 163 173 174
288 290 290 289 289 290 293 296 297 297 297 296 294 292 291 290 291 293 297 302 308 316 327 337 341 343 348 351 347 340 335 330 313 286 250 226 205 194 193 188 180 184 193
296 295 293 292 291 292 293 295 295 294 292 290 288 287 286 285 284 284 284 287 291 295 301 307 312 313 314 318 321 321 319 317 310 292 277 262 250 238 226 215 206 202 206
298 297 294 293 292 291 292 292 290 288 285 283 283 284 284 283 281 280 279 280 283 286 290 292 294 295 295 296 297 298 300 300 298 292 283 277 268 257 248 239 228 220 221
298 297 295 292 289 288 287 286 284 283 282 281 282 282 281 280 280 279 278 278 280 282 284 286 287 287 286 286 287 287 288 289 289 286 282 278 275 269 262 256 247 237 232
296 295 294 292 289 286 285 283 282 280 280 280 280 280 280 279 278 277 277 277 277 278 279 281 282 283 282 281 281 281 281 281 282 280 278 276 273 271 267 262 255 249 242
289 290 291 291 291 290 288 286 284 282 280 279 278 277 277 277 276 276 276 276 276 276 276 277 278 279 279 279 277 277 278 277 276 276 274 273 272 269 267 263 257 253 248
281 285 290 292 293 293 292 290 288 285 282 279 277 275 274 273 274 274 274 274 274 274 274 274 274 275 275 276 276 276 276 276 275 273 272 270 268 267 266 263 259 255 251
283 285 288 291 293 292 291 289 287 285 282 280 277 275 273 272 272 272 272 272 272 273 272 272 272 273 273 273 273 274 275 275 276 274 270 268 267 265 264 262 261 257 253
286 287 289 291 291 290 289 288 286 284 283 280 276 273 271 270 270 271 271 271 271 271 271 271 270 270 271 272 273 273 275 276 277 274 270 269 266 265 265 263 260 258 255
289 289 290 290 291 290 287 285 284 281 280 277 273 271 269 267 266 268 268 268 268 269 269 270 269 269 269 269 270 271 273 274 274 273 273 271 268 266 266 264 260 258 257
289 289 289 290 292 291 288 288 288 281 275 274 272 269 266 263 262 264 264 264 265 266 267 268 269 268 268 268 268 269 270 275 273 272 273 272 271 269 266 266 262 260 258
288 290 292 293 293 293 294 296 296 296 281 272 268 265 261 258 257 259 259 260 261 263 265 267 268 268 267 267 267 266 268 271 271 270 271 272 270 269 267 266 263 260 260
286 289 292 295 296 299 303 305 301 299 293 277 269 264 259 255 254 254 255 255 258 261 264 265 266 266 265 265 265 265 265 267 267 267 269 270 269 269 267 267 266 265 261
289 292 293 295 298 303 306 305 304 303 297 284 271 264 258 252 249 252 251 253 256 260 262 263 263 264 263 262 262 263 263 263 262 264 267 269 270 271 272 272 271 269 263
292 294 294 296 301 305 306 309 311 308 298 289 277 263 254 248 247 249 250 253 255 258 259 260 260 260 260 259 257 257 258 259 260 261 264 267 269 271 274 274 273 270 266
294 296 297 298 301 302 306 311 313 313 303 294 285 268 256 248 248 252 249 252 255 256 257 258 258 257 255 253 252 251 252 254 255 257 259 262 265 268 273 275 275 273 269
294 297 297 299 301 302 305 307 310 313 309 299 288 277 263 255 253 254 252 253 253 254 255 255 255 252 250 248 246 245 247 249 251 254 255 258 263 267 272 276 277 274 270
292 294 295 297 299 300 303 305 309 311 307 303 291 281 272 265 260 254 251 251 252 253 254 253 251 249 247 244 243 242 243 245 247 250 252 256 262 268 274 278 279 277 273
288 290 291 292 295 297 299 301 304 305 304 299 292 283 278 275 268 262 258 256 254 254 252 252 251 249 245 243 241 241 243 244 246 248 250 254 261 269 275 279 280 279 276
286 287 288 290 292 294 296 297 298 297 296 294 290 283 279 274 271 267 265 261 257 254 252 251 251 249 245 242 240 241 243 244 248 249 250 252 259 266 273 279 281 281 279
291 291 291 292 292 292 293 293 293 291 289 287 284 280 276 272 270 268 266 264 259 256 253 251 250 249 246 243 240 240 242 245 248 250 251 253 257 264 272 278 282 283 282
297 296 295 294 294 293 292 291 289 287 284 281 277 274 271 268 266 264 262 260 257 255 253 250 249 249 247 244 242 241 241 243 246 249 253 255 257 262 270 276 281 284 285
Height
5908 5908 5908 5908 5908 5907 5906 5905 5904 5904 5903 5902 5902 5901 5901 5901 5900 5900 5900 5899 5898 5898 5897 5897 5896 5895 5895 5894 5894 5894 5893 5893 5893 5892 5891 5891 5890 5890 5890 5890 5891 5891 5891
5908 5908 5908 5908 5907 5907 5906 5904 5903 5903 5902 5901 5901 5901 5901 5900 5900 5900 5900 5899 5899 5898 5897 5897 5896 5895 5895 5894 5894 5894 5893 5893 5893 5893 5892 5892 5891 5891 5891 5892 5892 5892 5892
5907 5907 5907 5907 5906 5906 5905 5904 5903 5902 5901 5901 5900 5900 5900 5900 5900 5899 5899 5899 5898 5898 5897 5897 5896 5895 5895 5894 5894 5894 5894 5893 5893 5893 5893 5892 5892 5892 5892 5892 5893 5893 5893
5907 5906 5906 5906 5905 5904 5903 5903 5902 5901 5900 5900 5900 5900 5899 5899 5899 5899 5898 5898 5897 5897 5897 5897 5896 5896 5895 5894 5894 5894 5893 5893 5893 5893 5893 5893 5893 5893 5892 5892 5893 5893 5893
5906 5905 5905 5904 5904 5903 5902 5902 5901 5900 5900 5899 5899 5899 5898 5898 5898 5897 5897 5897 5896 5896 5896 5896 5896 5895 5895 5894 5894 5894 5893 5893 5893 5892 5892 5892 5893 5893 5892 5892 5892 5892 5893
5905 5904 5904 5903 5902 5902 5901 5900 5900 5899 5898 5898 5898 5897 5897 5897 5896 5896 5895 5895 5895 5894 5894 5894 5894 5894 5894 5894 5893 5893 5893 5892 5892 5892 5891 5891 5892 5892 5892 5892 5892 5892 5892
5904 5903 5902 5901 5900 5900 5899 5898 5898 5897 5896 5896 5895 5895 5895 5895 5894 5894 5893 5893 5892 5892 5892 5892 5892 5892 5892 5892 5892 5892 5891 5891 5891 5891 5890 5890 5890 5890 5891 5891 5891 5891 5891
5902 5902 5901 5899 5898 5897 5896 5896 5895 5894 5894 5893 5893 5892 5892 5891 5891 5890 5890 5890 5889 5889 5889 5889 5889 5889 5889 5890 5890 5890 5889 5889 5889 5888 5888 5888 5888 5889 5889 5889 5889 5889 5890
5901 5900 5899 5898 5896 5895 5894 5893 5892 5891 5891 5890 5890 5889 5889 5888 5887 5887 5886 5886 5886 5885 5885 5885 5885 5885 5885 5886 5886 5886 5886 5886 5886 5885 5885 5885 5886 5886 5886 5887 5887 5888 5888
5899 5898 5897 5896 5894 5893 5892 5891 5890 5889 5888 5887 5886 5885 5884 5884 5883 5883 5882 5882 5881 5881 5881 5881 5881 5880 5881 5881 5881 5881 5882 5882 5882 5882 5882 5882 5882 5883 5883 5884 5885 5885 5886
5896 5895 5895 5893 5892 5891 5889 5888 5887 5886 5884 5883 5882 5881 5880 5879 5879 5878 5877 5877 5877 5876 5876 5876 5876 5876 5876 5876 5876 5876 5877 5877 5878 5878 5878 5878 5879 5879 5880 5880 5881 5882 5883
5893 5892 5891 5890 5889 5887 5885 5884 5882 5881 5879 5878 5877 5876 5875 5874 5873 5873 5872 5871 5871 5871 5871 5871 5871 5870 5870 5870 5871 5871 5871 5872 5872 5873 5873 5874 5874 5875 5875 5876 5877 5878 5879
5889 5888 5886 5885 5883 5881 5880 5878 5877 5875 5873 5871 5870 5869 5868 5868 5867 5867 5866 5866 5865 5865 5865 5865 5865 5865 5865 5865 5865 5866 5866 5866 5867 5867 5868 5868 5869 5869 5871 5872 5872 5873 5874
5884 5883 5881 5879 5877 5875 5872 5870 5869 5867 5865 5863 5862 5861 5860 5860 5860 5859 5859 5859 5859 5859 5859 5859 5859 5859 5859 5859 5860 5860 5860 5861 5861 5862 5862 5863 5863 5864 5865 5866 5867 5868 5868
5878 5876 5874 5872 5870 5867 5864 5861 5859 5856 5855 5854 5853 5852 5852 5851 5851 5852 5852 5852 5853 5853 5853 5853 5853 5853 5853 5854 5854 5855 5855 5856 5856 5857 5857 5857 5858 5859 5860 5860 5861 5862 5862
5871 5869 5866 5864 5862 5859 5855 5852 5850 5847 5843 5842 5842 5841 5841 5842 5842 5843 5844 5845 5846 5846 5846 5847 5847 5847 5848 5848 5849 5849 5850 5850 5851 5851 5852 5852 5853 5853 5854 5855 5856 5857 5857
5865 5862 5859 5856 5853 5850 5847 5844 5841 5837 5832 5830 5830 5829 5830 5831 5832 5833 5835 5836 5838 5839 5839 5840 5840 5841 5841 5842 5843 5843 5844 5845 5846 5846 5847 5847 5847 5848 5849 5850 5850 5851 5851
5858 5855 5852 5848 5845 5842 5839 5835 5831 5827 5822 5820 5819 5819 5819 5820 5822 5824 5826 5829 5830 5831 5832 5833 5834 5835 5835 5836 5837 5837 5839 5840 5841 5841 5842 5842 5843 5843 5844 5844 5845 5846 5847
5851 5848 5845 5841 5837 5835 5832 5828 5823 5818 5815 5812 5810 5809 5809 5811 5813 5815 5818 5820 5822 5824 5825 5827 5827 5828 5829 5830 5831 5832 5833 5834 5836 5836 5837 5838 5838 5838 5839 5839 5839 5840 5841
5843 5840 5838 5835 5831 5829 5826 5821 5816 5811 5808 5805 5803 5802 5802 5803 5806 5807 5810 5813 5815 5817 5818 5820 5821 5821 5822 5824 5825 5826 5827 5829 5830 5832 5832 5833 5834 5834 5834 5834 5834 5834 5835
5836 5833 5830 5827 5824 5822 5819 5815 5810 5806 5803 5801 5799 5797 5797 5797 5799 5801 5803 5804 5807 5809 5811 5812 5813 5815 5816 5817 5819 5820 5822 5824 5825 5827 5828 5829 5830 5830 5830 5830 5829 5829 5829
5829 5826 5823 5820 5817 5814 5812 5808 5805 5802 5799 5797 5795 5794 5792 5792 5793 5795 5796 5797 5800 5801 5803 5804 5806 5808 5809 5811 5812 5814 5816 5818 5820 5821 5823 5824 5825 5825 5825 5825 5824 5823 5823
5821 5818 5815 5812 5809 5806 5803 5801 5799 5796 5794 5792 5791 5789 5788 5788 5788 5790 5790 5791 5792 5793 5795 5797 5799 5800 5802 5804 5806 5808 5810 5812 5814 5816 5818 5819 5820 5821 5821 5820 5819 5818 5817
5812 5810 5806 5803 5800 5798 5795 5793 5791 5789 5788 5786 5785 5784 5784 5782 5783 5783 5783 5784 5785 5785 5787 5789 5791 5793 5795 5797 5799 5801 5804 5805 5808 5810 5812 5814 5815 5815 5816 5816 5815 5813 5812
5804 5801 5797 5794 5791 5788 5786 5783 5781 5780 5778 5778 5777 5776 5776 5776 5776 5775 5775 5776 5777 5778 5779 5781 5782 5784 5787 5790 5792 5795 5797 5799 5801 5803 5805 5808 5809 5810 5810 5811 5810 5809 5807
5796 5792 5788 5785 5781 5777 5774 5771 5769 5768 5767 5766 5766 5766 5766 5765 5766 5766 5766 5767 5768 5769 5770 5771 5773 5776 5778 5781 5784 5787 5790 5792 5794 5796 5798 5801 5803 5805 5805 5805 5805 5803 5802